QZS-6 (MICHIBIKI-6)

Last updated on Tue Sep 22 2026 00:03:16 GMT+0000 (Coordinated Universal Time)

1 62876U 25023A 26264.57833774 -.00000238 00000+0 00000+0 0 9997 2 62876 0.0415 286.5272 0001934 258.5576 114.1188 1.00273994 5912
UTC large
Height (km)
Speed (km/s)
/
Latitude / Longitude
Inclination (degrees)
Orbital Period (minutes)
Azimuth
Elevation
Range (km)
Doppler Factor

Next 0 passes for location: London (51.5072 / 0.1276)

No passes found over London.
QZS-6 (MICHIBIKI-6)